Weather History for HTDA - February, 2014

Change the Weather History Date:

Wednesday, February 19, 2014

  Actual Average Record
Temperature  
Mean Temperature 82 °F -  
Max Temperature 87 °F 85 °F 93 °F (2006)
Min Temperature 77 °F 75 °F 71 °F (2007)
Cooling Degree Days 16    
Growing Degree Days 32 (Base 50)    
Moisture  
Dew Point 76 °F    
Average Humidity 81    
Maximum Humidity 94    
Minimum Humidity 62    
Precipitation  
Precipitation 0.00 in 0.13 in - ()
Sea Level Pressure  
Sea Level Pressure 29.84 in    
Wind  
Wind Speed 20 mph ()    
Max Wind Speed 81 mph    
Max Gust Speed -    
Visibility 8.8 miles    
Events Fog    
Averages and records for this station are not official NWS values.
T = Trace of Precipitation, MM = Missing Value Source: Averaged Metar Reports

Daily Weather History Graph

Daily Weather History Graph

Search for Another Location

Airport or City:

Trip Planner

Search our weather history database for the weather conditions in past years. The results will help you decide how hot, cold, wet, or windy it might be!

Date:

Astronomy

Feb. 19, 2014 Rise Set
Actual Time 6:28 AM EAT 6:45 PM EAT
Civil Twilight 6:06 AM EAT 7:07 PM EAT
Nautical Twilight 5:42 AM EAT 7:31 PM EAT
Astronomical Twilight 5:17 AM EAT 7:56 PM EAT
Moon 9:53 PM EAT (2/19) 9:38 AM EAT (2/19)
Length of Visible Light 13h 00m
Length of Day
12h 17m
Waning Gibbous, 82% of the Moon is Illuminated
Feb 19
Waning Gibbous
Feb 22
Last Quarter
Mar 1
New
Mar 8
First Quarter
Mar 16
Full

Hourly Weather History & Observations

Time (EAT) Temp. Heat Index Dew Point Humidity Pressure Visibility Wind Dir Wind Speed Gust Speed Precip Events Conditions
12:00 AM - - 77 °F % 29.88 in 19 mi NNE 80.6 mph - -   Mostly Cloudy
12:00 AM 80.6 °F 87.1 °F 77.0 °F 89% 29.86 in 6.2 mi NE 10.4 mph - N/A   Partly Cloudy
3:00 AM 80 °F - 76 °F 86% 29.83 in 19 mi NE 10.4 mph - -   Mostly Cloudy
3:00 AM 80.6 °F 87.1 °F 77.0 °F 89% 29.83 in 6.2 mi NE 10.4 mph - N/A   Partly Cloudy
4:00 AM 78.8 °F - 77.0 °F 94% 29.83 in 6.2 mi NNE 11.5 mph - N/A   Partly Cloudy
5:00 AM 80.6 °F 86.2 °F 75.2 °F 84% 29.83 in 6.2 mi NE 9.2 mph - N/A   Partly Cloudy
6:00 AM - - 76 °F % 29.84 in 1 mi NNE 73.6 mph - -   Mostly Cloudy
6:00 AM 78.8 °F - 75.2 °F 89% 29.83 in 6.2 mi NNE 11.5 mph - N/A   Partly Cloudy
7:00 AM 78.8 °F - 75.2 °F 89% 29.86 in 6.2 mi NNE 10.4 mph - N/A   Partly Cloudy
8:00 AM 80.6 °F 87.1 °F 77.0 °F 89% 29.89 in 6.2 mi NNE 10.4 mph - N/A   Haze
9:00 AM 82 °F - 77 °F 79% 29.91 in 19 mi NNE 8.1 mph - -   Partly Cloudy
9:00 AM 82.4 °F 90.9 °F 77.0 °F 84% 29.89 in 6.2 mi NNE 8.1 mph - N/A   Mostly Cloudy
10:00 AM 82.4 °F 90.9 °F 77.0 °F 84% 29.89 in 5.0 mi NE 10.4 mph - N/A Fog Fog
11:00 AM 84.2 °F 92.3 °F 75.2 °F 74% 29.86 in 5.0 mi East 8.1 mph - N/A Fog Fog
12:00 PM 85 °F - 74 °F 62% 29.86 in 9 mi ENE 11.5 mph - -   Haze
12:00 PM 86.0 °F 93.4 °F 73.4 °F 66% 29.86 in 6.2 mi ENE 11.5 mph - N/A   Haze
1:00 PM 84.2 °F 94.1 °F 77.0 °F 79% 29.83 in 6.2 mi ENE 9.2 mph - N/A   Mostly Cloudy
3:00 PM 86 °F - 77 °F 68% 29.79 in 12 mi NE 13.8 mph - - Fog Patches of Fog
3:00 PM - - - N/A% 29.77 in 6.2 mi NE 13.8 mph - N/A Fog Shallow Fog
6:00 PM 83 °F - 77 °F 77% 29.76 in 16 mi ENE 9.2 mph - -   Mist
9:00 PM 81 °F - 76 °F 79% 29.67 in 12 mi NNE 12.7 mph - -   Partly Cloudy